Language: 


Des rapports , des résumés tant et plus, au choix de chacun....


Données Historiques de Météogheer
Journalier Rapport pour Février 5, 2018 Unitée:  Métrique    Impériale   Les deux
Suivant Jour »
Journalier Hebdomadaire Mensuel Annuel Sur mesure
  Max: Min: Moyenne:
Température: 4.6 °C 0.0 °C 2.3 °C
Point de rosée: 1.0 °C -3.0 °C -0.1 °C
Humidité: 90% 0% 81%
Vent: 28.5km/h 0.0km/h 12.3km/h
Rafales: 28.5km/h - -
Vent- - ENE
Pression: 1024.9 hPa 0.0 hPa -
Pluie: 0.0 mm    
Historical Graphs
 
 
Données tabulaires pour Février 5, 2018
Heure Température Point de rosée Pression Vent Vent Rafales Humidité Pluie Taux (Horaire) Conditions
00:04 2.3 °C 1.0 °C 1024.9 hPa NE 11.9 km/h 14.0 km/h 90% 0.0 mm
00:09 2.3 °C 1.0 °C 1024.9 hPa NE 7.9 km/h 15.1 km/h 90% 0.0 mm
00:14 2.3 °C 1.0 °C 1023.9 hPa NE 16.9 km/h 16.9 km/h 90% 0.0 mm
00:19 2.3 °C 1.0 °C 1023.9 hPa NE 13.7 km/h 16.9 km/h 90% 0.0 mm
00:24 2.3 °C 1.0 °C 1023.9 hPa NE 11.1 km/h 15.8 km/h 90% 0.0 mm
00:29 2.3 °C 1.0 °C 1023.9 hPa NE 13.0 km/h 13.7 km/h 90% 0.0 mm
00:34 2.3 °C 1.0 °C 1023.9 hPa NE 13.0 km/h 13.7 km/h 90% 0.0 mm
00:39 2.3 °C 1.0 °C 1023.9 hPa NE 11.9 km/h 15.4 km/h 90% 0.0 mm
00:44 2.3 °C 1.0 °C 1024.9 hPa NE 13.7 km/h 15.8 km/h 90% 0.0 mm
00:49 2.3 °C 1.0 °C 1024.9 hPa NNE 16.6 km/h 19.5 km/h 90% 0.0 mm
00:54 2.3 °C 1.0 °C 1024.9 hPa NE 14.0 km/h 20.6 km/h 90% 0.0 mm
00:59 2.3 °C 1.0 °C 1024.9 hPa ENE 10.1 km/h 20.6 km/h 90% 0.0 mm
01:04 2.3 °C 1.0 °C 1024.9 hPa ENE 11.9 km/h 16.9 km/h 90% 0.0 mm
01:09 2.3 °C 1.0 °C 1024.9 hPa NE 10.5 km/h 16.6 km/h 90% 0.0 mm
01:14 2.3 °C 1.0 °C 1023.9 hPa ENE 11.6 km/h 15.4 km/h 90% 0.0 mm
01:19 2.3 °C 1.0 °C 1023.9 hPa ENE 15.4 km/h 15.4 km/h 90% 0.0 mm
01:24 2.3 °C 1.0 °C 1023.9 hPa NNE 13.0 km/h 16.6 km/h 90% 0.0 mm
01:29 2.3 °C 1.0 °C 1023.9 hPa NE 9.7 km/h 16.6 km/h 90% 0.0 mm
01:34 2.3 °C 1.0 °C 1023.9 hPa ENE 12.6 km/h 16.3 km/h 90% 0.0 mm
01:39 2.3 °C 1.0 °C 1023.9 hPa ENE 12.6 km/h 16.3 km/h 90% 0.0 mm
01:44 2.3 °C 1.0 °C 1022.9 hPa NE 13.0 km/h 13.7 km/h 90% 0.0 mm
01:49 2.3 °C 1.0 °C 1022.9 hPa NE 10.1 km/h 13.7 km/h 90% 0.0 mm
01:54 2.3 °C 1.0 °C 1022.9 hPa ENE 9.3 km/h 13.7 km/h 90% 0.0 mm
01:59 2.3 °C 1.0 °C 1022.9 hPa NE 9.3 km/h 13.0 km/h 90% 0.0 mm
02:04 2.3 °C 1.0 °C 1022.9 hPa NNE 12.2 km/h 14.0 km/h 90% 0.0 mm
02:09 2.3 °C 1.0 °C 1022.9 hPa NE 12.6 km/h 20.6 km/h 90% 0.0 mm
02:14 2.3 °C 1.0 °C 1022.9 hPa ENE 9.3 km/h 20.6 km/h 90% 0.0 mm
02:20 2.3 °C 1.0 °C 1022.9 hPa ENE 12.2 km/h 16.3 km/h 90% 0.0 mm
02:25 2.3 °C 1.0 °C 1022.9 hPa NNE 6.9 km/h 13.7 km/h 90% 0.0 mm
02:30 2.3 °C 1.0 °C 1022.9 hPa ENE 6.9 km/h 9.0 km/h 90% 0.0 mm
02:35 2.3 °C 1.0 °C 1022.9 hPa Calm   10.1 km/h 90% 0.0 mm
02:40 2.3 °C 1.0 °C 1022.9 hPa NE 2.6 km/h 10.1 km/h 90% 0.0 mm
02:45 2.3 °C 1.0 °C 1022.9 hPa NE 5.0 km/h 7.9 km/h 90% 0.0 mm
02:50 2.3 °C 1.0 °C 1022.9 hPa ENE 7.2 km/h 8.7 km/h 90% 0.0 mm
02:55 2.3 °C 1.0 °C 1022.9 hPa Calm   8.7 km/h 90% 0.0 mm
03:00 2.3 °C 1.0 °C 1022.9 hPa NE 6.9 km/h 11.9 km/h 90% 0.0 mm
03:05 2.3 °C 1.0 °C 1022.9 hPa NE 6.9 km/h 11.9 km/h 90% 0.0 mm
03:10 2.3 °C 1.0 °C 1022.9 hPa NE 8.7 km/h 9.3 km/h 90% 0.0 mm
03:15 2.3 °C 1.0 °C 1022.9 hPa NE 7.9 km/h 9.0 km/h 90% 0.0 mm
03:20 2.3 °C 1.0 °C 1022.9 hPa NNE 8.7 km/h 9.7 km/h 90% 0.0 mm
03:25 2.3 °C 1.0 °C 1022.9 hPa ENE 11.6 km/h 14.8 km/h 90% 0.0 mm
03:30 2.3 °C 1.0 °C 1023.9 hPa NNE 10.5 km/h 14.8 km/h 90% 0.0 mm
03:35 2.3 °C 1.0 °C 1023.9 hPa NE 10.1 km/h 13.0 km/h 90% 0.0 mm
03:40 2.3 °C 1.0 °C 1023.9 hPa NE 9.3 km/h 14.0 km/h 90% 0.0 mm
03:45 2.3 °C 1.0 °C 1022.9 hPa ENE 12.6 km/h 15.1 km/h 90% 0.0 mm
03:50 2.3 °C 1.0 °C 1022.9 hPa ENE 15.4 km/h 15.4 km/h 90% 0.0 mm
03:55 2.3 °C 1.0 °C 1022.9 hPa ENE 9.3 km/h 15.4 km/h 90% 0.0 mm
04:00 2.3 °C 1.0 °C 1022.9 hPa ENE 15.1 km/h 15.4 km/h 90% 0.0 mm
04:05 2.3 °C 1.0 °C 1022.9 hPa ENE 12.2 km/h 15.1 km/h 90% 0.0 mm
04:11 2.3 °C 1.0 °C 1022.9 hPa ENE 11.1 km/h 14.0 km/h 90% 0.0 mm
04:16 2.3 °C 1.0 °C 1022.9 hPa ENE 12.6 km/h 13.0 km/h 90% 0.0 mm
04:21 2.3 °C 1.0 °C 1022.9 hPa NE 14.0 km/h 14.3 km/h 90% 0.0 mm
04:26 2.3 °C 1.0 °C 1022.9 hPa ENE 9.0 km/h 14.3 km/h 90% 0.0 mm
04:31 2.3 °C 1.0 °C 1022.9 hPa ENE 10.5 km/h 14.0 km/h 90% 0.0 mm
04:36 2.3 °C 1.0 °C 1022.9 hPa ENE 12.2 km/h 13.7 km/h 90% 0.0 mm
04:41 2.3 °C 1.0 °C 1022.9 hPa NE 9.3 km/h 16.3 km/h 90% 0.0 mm
04:46 2.3 °C 1.0 °C 1022.9 hPa ENE 13.7 km/h 16.9 km/h 90% 0.0 mm
04:51 2.3 °C 1.0 °C 1022.9 hPa ENE 15.4 km/h 16.9 km/h 90% 0.0 mm
04:56 2.3 °C 1.0 °C 1022.9 hPa ENE 11.9 km/h 15.4 km/h 90% 0.0 mm
05:01 2.3 °C 1.0 °C 1022.9 hPa NE 13.0 km/h 13.7 km/h 90% 0.0 mm
05:06 2.3 °C 1.0 °C 1022.9 hPa ENE 12.6 km/h 13.0 km/h 90% 0.0 mm
05:11 2.3 °C 1.0 °C 1022.9 hPa NE 10.1 km/h 14.0 km/h 90% 0.0 mm
05:16 2.3 °C 1.0 °C 1022.9 hPa NE 12.6 km/h 14.0 km/h 90% 0.0 mm
05:21 2.3 °C 1.0 °C 1022.9 hPa ENE 11.6 km/h 13.0 km/h 90% 0.0 mm
05:26 2.3 °C 1.0 °C 1022.9 hPa NE 10.5 km/h 14.3 km/h 90% 0.0 mm
05:31 2.3 °C 1.0 °C 1022.9 hPa ENE 12.2 km/h 14.3 km/h 90% 0.0 mm
05:36 2.3 °C 1.0 °C 1022.9 hPa NE 10.5 km/h 14.0 km/h 90% 0.0 mm
05:41 2.3 °C 1.0 °C 1022.9 hPa NE 8.7 km/h 14.0 km/h 90% 0.0 mm
05:46 2.3 °C 1.0 °C 1022.9 hPa ENE 11.6 km/h 13.0 km/h 90% 0.0 mm
05:51 2.3 °C 1.0 °C 1022.9 hPa NE 10.5 km/h 14.0 km/h 90% 0.0 mm
05:56 2.3 °C 1.0 °C 1022.9 hPa NE 10.5 km/h 14.0 km/h 90% 0.0 mm
06:01 2.3 °C 1.0 °C 1022.9 hPa NE 13.7 km/h 13.7 km/h 90% 0.0 mm
06:06 2.3 °C 1.0 °C 1022.9 hPa NE 10.1 km/h 13.7 km/h 90% 0.0 mm
06:12 2.3 °C 1.0 °C 1022.9 hPa NE 9.0 km/h 10.8 km/h 90% 0.0 mm
06:17 2.3 °C 1.0 °C 1021.9 hPa NE 13.7 km/h 15.4 km/h 90% 0.0 mm
06:22 2.3 °C 1.0 °C 1021.9 hPa NE 12.6 km/h 15.8 km/h 90% 0.0 mm
06:27 2.3 °C 1.0 °C 1021.9 hPa NNE 11.9 km/h 15.8 km/h 90% 0.0 mm
06:32 2.3 °C 1.0 °C 1022.9 hPa NE 9.0 km/h 13.7 km/h 90% 0.0 mm
06:37 2.3 °C 1.0 °C 1022.9 hPa NNE 12.2 km/h 12.2 km/h 90% 0.0 mm
06:42 2.3 °C 1.0 °C 1022.9 hPa NNE 12.6 km/h 13.7 km/h 90% 0.0 mm
06:47 2.3 °C 1.0 °C 1022.9 hPa NE 10.5 km/h 13.7 km/h 90% 0.0 mm
06:52 2.3 °C 1.0 °C 1022.9 hPa NE 11.9 km/h 15.4 km/h 90% 0.0 mm
06:57 2.3 °C 1.0 °C 1022.9 hPa NE 9.7 km/h 15.4 km/h 90% 0.0 mm
07:02 2.3 °C 1.0 °C 1022.9 hPa NE 9.7 km/h 15.4 km/h 90% 0.0 mm
07:07 2.3 °C 1.0 °C 1022.9 hPa NE 9.3 km/h 9.3 km/h 90% 0.0 mm
07:12 2.3 °C 1.0 °C 1022.9 hPa NE 9.3 km/h 9.3 km/h 90% 0.0 mm
07:17 2.3 °C 1.0 °C 1022.9 hPa NNE 9.3 km/h 9.3 km/h 90% 0.0 mm
07:22 2.3 °C 1.0 °C 1022.9 hPa NNE 9.3 km/h 9.3 km/h 90% 0.0 mm
07:27 2.3 °C 1.0 °C 1022.9 hPa NNE 9.3 km/h 9.3 km/h 90% 0.0 mm
07:32 2.3 °C 1.0 °C 1023.9 hPa NNE 9.7 km/h 11.6 km/h 90% 0.0 mm
07:37 2.3 °C 1.0 °C 1023.9 hPa NNE 12.6 km/h 13.7 km/h 90% 0.0 mm
07:42 2.3 °C 1.0 °C 1023.9 hPa NNE 11.9 km/h 15.4 km/h 90% 0.0 mm
07:47 2.3 °C 1.0 °C 1023.9 hPa NE 12.6 km/h 16.9 km/h 90% 0.0 mm
07:52 2.3 °C 1.0 °C 1023.9 hPa NE 12.2 km/h 16.9 km/h 90% 0.0 mm
07:57 2.3 °C 1.0 °C 1023.9 hPa NE 11.6 km/h 17.2 km/h 90% 0.0 mm
08:02 2.3 °C 1.0 °C 1023.9 hPa NNE 9.3 km/h 17.7 km/h 90% 0.0 mm
08:07 2.3 °C 1.0 °C 1023.9 hPa NE 12.2 km/h 17.7 km/h 90% 0.0 mm
08:12 2.3 °C 1.0 °C 1023.9 hPa NE 17.7 km/h 19.8 km/h 90% 0.0 mm
08:17 2.3 °C 1.0 °C 1023.9 hPa NE 15.8 km/h 20.1 km/h 90% 0.0 mm
08:22 2.3 °C 1.0 °C 1023.9 hPa NNE 15.8 km/h 20.1 km/h 90% 0.0 mm
08:27 2.3 °C 1.0 °C 1023.9 hPa ENE 10.1 km/h 20.6 km/h 90% 0.0 mm
08:32 2.3 °C 1.0 °C 1023.9 hPa NE 12.2 km/h 20.6 km/h 90% 0.0 mm
08:37 2.3 °C 1.0 °C 1023.9 hPa NE 15.8 km/h 20.1 km/h 90% 0.0 mm
08:42 2.3 °C 1.0 °C 1023.9 hPa ENE 14.0 km/h 20.1 km/h 90% 0.0 mm
08:47 2.3 °C 1.0 °C 1023.9 hPa ENE 15.8 km/h 19.8 km/h 90% 0.0 mm
08:52 2.3 °C 1.0 °C 1023.9 hPa ENE 13.0 km/h 17.7 km/h 90% 0.0 mm
09:00 2.3 °C 1.0 °C 1023.9 hPa NNE 12.2 km/h 18.3 km/h 90% 0.0 mm
09:05 2.3 °C 1.0 °C 1023.9 hPa ENE 14.0 km/h 18.3 km/h 90% 0.0 mm
09:10 2.3 °C 1.0 °C 1023.9 hPa NE 9.3 km/h 19.1 km/h 90% 0.0 mm
09:15 2.3 °C 1.0 °C 1023.9 hPa ENE 11.9 km/h 19.1 km/h 90% 0.0 mm
09:20 2.3 °C 1.0 °C 1023.9 hPa ENE 9.3 km/h 16.3 km/h 90% 0.0 mm
09:25 2.3 °C 1.0 °C 1023.9 hPa NE 9.3 km/h 16.6 km/h 90% 0.0 mm
09:30 2.3 °C 1.0 °C 1023.9 hPa NE 13.7 km/h 16.6 km/h 90% 0.0 mm
09:35 2.3 °C 1.0 °C 1023.9 hPa ENE 20.1 km/h 23.8 km/h 90% 0.0 mm
09:40 2.3 °C 1.0 °C 1023.9 hPa ENE 16.6 km/h 23.8 km/h 90% 0.0 mm
09:45 2.3 °C 1.0 °C 1023.9 hPa East 16.3 km/h 23.8 km/h 90% 0.0 mm
09:51 2.3 °C 1.0 °C 1023.9 hPa ENE 28.5 km/h 28.5 km/h 90% 0.0 mm
09:56 2.3 °C 1.0 °C 1023.9 hPa ENE 28.5 km/h 28.5 km/h 90% 0.0 mm
10:01 2.3 °C 1.0 °C 1023.9 hPa ENE 13.7 km/h 13.7 km/h 90% 0.0 mm
10:06 2.3 °C 1.0 °C 1023.9 hPa ENE 17.2 km/h 23.0 km/h 90% 0.0 mm
10:11 2.3 °C 1.0 °C 1023.9 hPa NE 16.6 km/h 23.0 km/h 90% 0.0 mm
10:16 2.3 °C 1.0 °C 1023.9 hPa NE 14.0 km/h 20.1 km/h 90% 0.0 mm
10:21 2.3 °C 1.0 °C 1023.9 hPa ENE 14.0 km/h 23.3 km/h 90% 0.0 mm
10:26 2.3 °C 1.0 °C 1023.9 hPa ENE 15.8 km/h 23.3 km/h 90% 0.0 mm
10:31 0.0 °C 1.0 °C 0.0 hPa ENE 13.7 km/h 19.5 km/h 0% 0.0 mm
10:36 0.0 °C 1.0 °C 1023.9 hPa ENE 13.7 km/h 19.5 km/h 0% 0.0 mm
10:41 0.0 °C 1.0 °C 1023.9 hPa NE 9.3 km/h 14.3 km/h 0% 0.0 mm
10:46 0.0 °C 1.0 °C 1023.9 hPa NE 10.5 km/h 12.2 km/h 0% 0.0 mm
10:51 0.0 °C 1.0 °C 1023.9 hPa ENE 9.3 km/h 10.5 km/h 0% 0.0 mm
10:56 0.0 °C 1.0 °C 1023.9 hPa East 12.6 km/h 15.4 km/h 0% 0.0 mm
11:01 0.0 °C 1.0 °C 1022.9 hPa NE 10.5 km/h 15.4 km/h 0% 0.0 mm
11:06 4.6 °C -3.0 °C 1022.9 hPa NE 10.5 km/h 13.0 km/h 57% 0.0 mm
11:11 3.6 °C -3.0 °C 1022.9 hPa NE 10.5 km/h 10.5 km/h 61% 0.0 mm
11:16 3.0 °C -2.0 °C 1022.9 hPa NE 10.5 km/h 10.5 km/h 67% 0.0 mm
11:21 2.7 °C -2.0 °C 1022.9 hPa NE 10.5 km/h 10.5 km/h 70% 0.0 mm
11:27 2.5 °C -1.0 °C 1022.9 hPa NE 10.5 km/h 10.5 km/h 73% 0.0 mm
11:32 2.4 °C -1.0 °C 1022.9 hPa NE 10.5 km/h 10.5 km/h 74% 0.0 mm
11:43 2.5 °C -1.0 °C 1022.9 hPa NE 10.5 km/h 10.5 km/h 77% 0.0 mm
11:48 2.4 °C -1.0 °C 1022.9 hPa NE 10.5 km/h 10.5 km/h 77% 0.0 mm
11:53 2.3 °C -1.0 °C 1022.9 hPa NE 10.5 km/h 10.5 km/h 77% 0.0 mm
11:58 2.2 °C -1.0 °C 1022.9 hPa NE 10.5 km/h 10.5 km/h 77% 0.0 mm
12:03 2.2 °C -1.0 °C 1022.9 hPa NE 10.5 km/h 10.5 km/h 78% 0.0 mm
12:08 2.3 °C -1.0 °C 1022.9 hPa NE 10.5 km/h 10.5 km/h 78% 0.0 mm
12:13 2.3 °C -1.0 °C 1022.9 hPa NE 10.5 km/h 10.5 km/h 77% 0.0 mm
12:18 2.3 °C -1.0 °C 1022.9 hPa NNE 16.6 km/h 16.6 km/h 77% 0.0 mm
12:23 2.4 °C -1.0 °C 1022.9 hPa NNE 16.6 km/h 16.6 km/h 77% 0.0 mm
12:28 2.6 °C -1.0 °C 1022.9 hPa NNE 16.6 km/h 16.6 km/h 77% 0.0 mm
12:33 2.7 °C -1.0 °C 1022.9 hPa NNE 16.6 km/h 16.6 km/h 76% 0.0 mm
12:38 2.8 °C -1.0 °C 1022.9 hPa East 10.5 km/h 16.6 km/h 76% 0.0 mm
12:43 3.0 °C -1.0 °C 1022.9 hPa East 10.5 km/h 11.9 km/h 75% 0.0 mm
12:48 3.0 °C -1.0 °C 1022.9 hPa East 10.5 km/h 10.5 km/h 74% 0.0 mm
12:53 3.1 °C -1.0 °C 1022.9 hPa East 10.5 km/h 10.5 km/h 75% 0.0 mm
12:58 3.4 °C 0.0 °C 1022.9 hPa East 10.5 km/h 10.5 km/h 75% 0.0 mm
13:03 3.5 °C 0.0 °C 1022.9 hPa East 10.5 km/h 10.5 km/h 74% 0.0 mm
13:08 3.7 °C 0.0 °C 1022.9 hPa East 10.5 km/h 10.5 km/h 74% 0.0 mm
13:13 3.7 °C -1.0 °C 1022.9 hPa East 10.5 km/h 10.5 km/h 73% 0.0 mm
13:18 3.7 °C -1.0 °C 1022.9 hPa East 10.5 km/h 10.5 km/h 73% 0.0 mm
13:23 3.6 °C -1.0 °C 1022.9 hPa East 10.5 km/h 10.5 km/h 72% 0.0 mm
13:28 3.3 °C -1.0 °C 1022.9 hPa East 10.5 km/h 10.5 km/h 72% 0.0 mm
13:34 3.3 °C -1.0 °C 1022.9 hPa East 10.5 km/h 10.5 km/h 72% 0.0 mm
13:39 3.5 °C 0.0 °C 1022.9 hPa East 10.5 km/h 10.5 km/h 74% 0.0 mm
13:44 3.6 °C -1.0 °C 1022.9 hPa East 10.5 km/h 10.5 km/h 73% 0.0 mm
13:49 3.7 °C -1.0 °C 1022.9 hPa East 10.5 km/h 10.5 km/h 72% 0.0 mm
13:54 3.8 °C 0.0 °C 1022.9 hPa East 10.5 km/h 10.5 km/h 74% 0.0 mm
13:59 3.8 °C -1.0 °C 1021.9 hPa East 10.5 km/h 10.5 km/h 72% 0.0 mm
14:04 3.7 °C -1.0 °C 1021.9 hPa East 10.5 km/h 10.5 km/h 71% 0.0 mm
14:09 3.7 °C -1.0 °C 1021.9 hPa East 10.5 km/h 10.5 km/h 72% 0.0 mm
14:14 3.6 °C -1.0 °C 1021.9 hPa East 10.5 km/h 10.5 km/h 72% 0.0 mm
14:19 3.8 °C -1.0 °C 1021.9 hPa East 10.5 km/h 10.5 km/h 72% 0.0 mm
14:24 3.9 °C -1.0 °C 1021.9 hPa East 10.5 km/h 10.5 km/h 71% 0.0 mm
14:29 4.0 °C -1.0 °C 1021.9 hPa East 10.5 km/h 10.5 km/h 71% 0.0 mm
14:34 4.2 °C 0.0 °C 1021.9 hPa East 10.5 km/h 10.5 km/h 71% 0.0 mm
14:39 4.3 °C -1.0 °C 1021.9 hPa East 10.5 km/h 10.5 km/h 70% 0.0 mm
14:44 4.3 °C -1.0 °C 1021.9 hPa East 10.5 km/h 10.5 km/h 69% 0.0 mm
14:50 4.3 °C -1.0 °C 1021.9 hPa East 10.5 km/h 10.5 km/h 68% 0.0 mm
14:55 4.4 °C -1.0 °C 1021.9 hPa East 10.5 km/h 10.5 km/h 67% 0.0 mm
15:00 4.5 °C -1.0 °C 1020.9 hPa East 10.5 km/h 10.5 km/h 66% 0.0 mm
15:05 4.3 °C -1.0 °C 1020.9 hPa NE 21.2 km/h 21.2 km/h 66% 0.0 mm
15:10 4.1 °C -2.0 °C 1020.9 hPa NE 21.2 km/h 21.2 km/h 66% 0.0 mm
15:15 4.1 °C -1.0 °C 1020.9 hPa NE 21.2 km/h 21.2 km/h 67% 0.0 mm
15:20 4.1 °C -1.0 °C 1020.9 hPa NE 21.2 km/h 21.2 km/h 68% 0.0 mm
15:25 3.9 °C -1.0 °C 1020.9 hPa NE 21.2 km/h 21.2 km/h 68% 0.0 mm
15:30 3.7 °C -1.0 °C 1020.9 hPa NE 16.6 km/h 20.6 km/h 69% 0.0 mm
15:35 3.7 °C -1.0 °C 1020.9 hPa NE 16.6 km/h 20.6 km/h 71% 0.0 mm
15:40 3.8 °C -1.0 °C 1020.9 hPa NE 16.6 km/h 16.6 km/h 69% 0.0 mm
15:45 3.9 °C -1.0 °C 1019.9 hPa NE 16.6 km/h 16.6 km/h 69% 0.0 mm
15:50 4.0 °C -1.0 °C 1019.9 hPa NE 16.6 km/h 16.6 km/h 67% 0.0 mm
15:55 4.1 °C -1.0 °C 1019.9 hPa NE 16.6 km/h 16.6 km/h 68% 0.0 mm
16:00 4.2 °C -1.0 °C 1020.9 hPa NE 16.6 km/h 16.6 km/h 68% 0.0 mm
16:05 4.3 °C -1.0 °C 1020.9 hPa NE 16.6 km/h 16.6 km/h 68% 0.0 mm
16:10 4.4 °C -1.0 °C 1020.9 hPa NE 16.6 km/h 16.6 km/h 69% 0.0 mm
16:15 4.4 °C -1.0 °C 1020.9 hPa NE 16.6 km/h 16.6 km/h 69% 0.0 mm
16:20 4.4 °C -1.0 °C 1020.9 hPa NE 16.6 km/h 16.6 km/h 69% 0.0 mm
16:25 4.3 °C -1.0 °C 1020.9 hPa NE 16.6 km/h 16.6 km/h 69% 0.0 mm
16:30 4.3 °C -1.0 °C 1020.9 hPa NE 16.6 km/h 16.6 km/h 67% 0.0 mm
16:35 4.1 °C -1.0 °C 1020.9 hPa NE 16.6 km/h 16.6 km/h 67% 0.0 mm
16:40 4.0 °C -1.0 °C 1020.9 hPa ENE 13.7 km/h 13.7 km/h 67% 0.0 mm
16:45 4.0 °C -1.0 °C 1020.9 hPa ENE 13.7 km/h 13.7 km/h 67% 0.0 mm
16:50 3.9 °C -1.0 °C 1020.9 hPa ENE 13.7 km/h 13.7 km/h 68% 0.0 mm
16:55 3.8 °C -1.0 °C 1020.9 hPa ENE 13.7 km/h 13.7 km/h 69% 0.0 mm
17:00 3.7 °C -1.0 °C 1020.9 hPa ENE 13.7 km/h 13.7 km/h 70% 0.0 mm
17:05 3.6 °C -1.0 °C 1020.9 hPa ENE 13.7 km/h 13.7 km/h 68% 0.0 mm
17:10 3.4 °C -2.0 °C 1020.9 hPa ENE 13.7 km/h 13.7 km/h 67% 0.0 mm
17:15 3.3 °C -2.0 °C 1020.9 hPa ENE 13.7 km/h 13.7 km/h 68% 0.0 mm
17:20 3.1 °C -2.0 °C 1020.9 hPa ENE 13.7 km/h 13.7 km/h 69% 0.0 mm
17:25 3.0 °C -2.0 °C 1020.9 hPa ENE 13.7 km/h 13.7 km/h 70% 0.0 mm
17:30 2.8 °C -1.0 °C 1020.9 hPa ENE 13.7 km/h 13.7 km/h 71% 0.0 mm
17:35 2.8 °C -1.0 °C 1020.9 hPa ENE 13.7 km/h 13.7 km/h 73% 0.0 mm
17:40 2.7 °C -1.0 °C 1020.9 hPa ENE 13.7 km/h 13.7 km/h 73% 0.0 mm
17:45 2.6 °C -1.0 °C 1020.9 hPa ENE 13.7 km/h 13.7 km/h 74% 0.0 mm
17:50 2.6 °C -1.0 °C 1020.9 hPa ENE 13.7 km/h 13.7 km/h 73% 0.0 mm
17:55 2.5 °C -1.0 °C 1020.9 hPa ENE 13.7 km/h 13.7 km/h 73% 0.0 mm
18:00 2.5 °C -1.0 °C 1020.9 hPa ENE 13.7 km/h 13.7 km/h 73% 0.0 mm
18:05 2.5 °C -1.0 °C 1020.9 hPa ENE 13.7 km/h 13.7 km/h 73% 0.0 mm
18:10 2.4 °C -2.0 °C 1020.9 hPa ENE 13.7 km/h 13.7 km/h 73% 0.0 mm
18:16 2.3 °C -1.0 °C 1020.9 hPa ENE 13.7 km/h 13.7 km/h 74% 0.0 mm
18:21 2.3 °C -1.0 °C 1020.9 hPa ENE 13.7 km/h 13.7 km/h 75% 0.0 mm
18:26 2.1 °C -1.0 °C 1020.9 hPa ENE 13.7 km/h 13.7 km/h 75% 0.0 mm
18:31 1.9 °C -2.0 °C 1020.9 hPa ENE 13.7 km/h 13.7 km/h 76% 0.0 mm
18:36 1.9 °C -1.0 °C 1020.9 hPa ENE 13.7 km/h 13.7 km/h 77% 0.0 mm
18:41 1.9 °C -1.0 °C 1020.9 hPa ENE 13.7 km/h 13.7 km/h 78% 0.0 mm
18:46 1.9 °C -1.0 °C 1020.9 hPa ENE 13.7 km/h 13.7 km/h 79% 0.0 mm
18:51 1.9 °C -1.0 °C 1020.9 hPa ENE 13.7 km/h 13.7 km/h 79% 0.0 mm
18:56 1.9 °C -1.0 °C 1020.9 hPa ENE 13.7 km/h 13.7 km/h 79% 0.0 mm
19:01 1.9 °C -1.0 °C 1020.9 hPa ENE 13.7 km/h 13.7 km/h 79% 0.0 mm
19:06 1.8 °C -1.0 °C 1020.9 hPa ENE 13.7 km/h 13.7 km/h 79% 0.0 mm
19:11 1.9 °C -1.0 °C 1020.9 hPa ENE 13.7 km/h 13.7 km/h 79% 0.0 mm
19:16 1.9 °C -1.0 °C 1019.9 hPa ENE 13.7 km/h 13.7 km/h 78% 0.0 mm
19:21 1.8 °C -2.0 °C 1019.9 hPa ENE 13.7 km/h 13.7 km/h 77% 0.0 mm
19:26 1.8 °C -2.0 °C 1019.9 hPa ENE 13.7 km/h 13.7 km/h 77% 0.0 mm
19:31 1.7 °C -2.0 °C 1020.9 hPa NE 14.8 km/h 14.8 km/h 77% 0.0 mm
19:36 1.6 °C -2.0 °C 1020.9 hPa NNE 9.0 km/h 14.8 km/h 77% 0.0 mm
19:41 1.4 °C -2.0 °C 1020.9 hPa NNE 9.3 km/h 14.8 km/h 78% 0.0 mm
19:46 1.2 °C -2.0 °C 1019.9 hPa North 11.9 km/h 11.9 km/h 78% 0.0 mm
19:51 1.0 °C -2.0 °C 1019.9 hPa North 11.9 km/h 11.9 km/h 79% 0.0 mm
19:56 0.9 °C -2.0 °C 1019.9 hPa NNE 12.2 km/h 12.2 km/h 81% 0.0 mm
20:01 0.8 °C -2.0 °C 1019.9 hPa NNE 12.2 km/h 12.2 km/h 81% 0.0 mm
20:06 0.7 °C -2.0 °C 1019.9 hPa NNE 12.2 km/h 12.2 km/h 82% 0.0 mm
20:11 0.9 °C -1.0 °C 1019.9 hPa NNE 12.2 km/h 12.2 km/h 84% 0.0 mm
20:16 0.9 °C -1.0 °C 1019.9 hPa NNE 12.2 km/h 12.2 km/h 84% 0.0 mm
20:21 0.8 °C -1.0 °C 1019.9 hPa NNE 12.2 km/h 12.2 km/h 84% 0.0 mm
20:26 0.8 °C -1.0 °C 1019.9 hPa NE 10.5 km/h 10.5 km/h 84% 0.0 mm
20:31 0.8 °C -1.0 °C 1019.9 hPa NE 10.5 km/h 10.5 km/h 85% 0.0 mm
20:36 0.8 °C -1.0 °C 1019.9 hPa NE 10.5 km/h 10.5 km/h 85% 0.0 mm
20:41 0.8 °C -1.0 °C 1019.9 hPa NE 10.5 km/h 10.5 km/h 86% 0.0 mm
20:46 0.8 °C -1.0 °C 1019.9 hPa NE 10.5 km/h 10.5 km/h 86% 0.0 mm
20:51 0.8 °C -1.0 °C 1019.9 hPa NE 10.5 km/h 10.5 km/h 86% 0.0 mm
20:56 0.8 °C -1.0 °C 1019.9 hPa NE 10.5 km/h 10.5 km/h 87% 0.0 mm
21:01 0.8 °C -1.0 °C 1019.9 hPa NE 10.5 km/h 10.5 km/h 87% 0.0 mm
21:06 0.8 °C -1.0 °C 1019.9 hPa NNE 15.4 km/h 15.4 km/h 87% 0.0 mm
21:11 0.8 °C -1.0 °C 1019.9 hPa NNE 15.4 km/h 15.4 km/h 87% 0.0 mm
21:16 0.8 °C -1.0 °C 1019.9 hPa NNE 11.9 km/h 15.4 km/h 87% 0.0 mm
21:21 0.7 °C -1.0 °C 1019.9 hPa NNE 11.9 km/h 15.4 km/h 87% 0.0 mm
21:26 0.7 °C -1.0 °C 1019.9 hPa NNE 11.9 km/h 11.9 km/h 87% 0.0 mm
21:31 0.7 °C -1.0 °C 1019.9 hPa NE 8.7 km/h 11.9 km/h 87% 0.0 mm
21:37 0.6 °C -1.0 °C 1019.9 hPa NE 10.5 km/h 11.9 km/h 87% 0.0 mm
21:42 0.6 °C -1.0 °C 1019.9 hPa NE 10.5 km/h 10.5 km/h 88% 0.0 mm
21:47 0.5 °C -1.0 °C 1019.9 hPa NE 10.5 km/h 10.5 km/h 88% 0.0 mm
21:52 0.5 °C -1.0 °C 1019.9 hPa NE 10.5 km/h 10.5 km/h 88% 0.0 mm
21:57 0.5 °C -1.0 °C 1019.9 hPa NE 10.5 km/h 10.5 km/h 88% 0.0 mm
22:02 0.5 °C -1.0 °C 1018.8 hPa NE 10.5 km/h 10.5 km/h 89% 0.0 mm
22:07 0.5 °C -1.0 °C 1018.8 hPa NE 10.5 km/h 10.5 km/h 89% 0.0 mm
22:12 0.5 °C -1.0 °C 1018.8 hPa NE 10.5 km/h 10.5 km/h 89% 0.0 mm
22:17 0.5 °C -1.0 °C 1018.8 hPa NE 10.5 km/h 10.5 km/h 89% 0.0 mm
22:22 0.5 °C -1.0 °C 1018.8 hPa NE 10.1 km/h 12.2 km/h 90% 0.0 mm
22:27 0.5 °C -1.0 °C 1018.8 hPa NE 11.9 km/h 13.0 km/h 90% 0.0 mm
22:32 0.5 °C -1.0 °C 1018.8 hPa NE 11.9 km/h 13.0 km/h 90% 0.0 mm
22:37 0.6 °C -1.0 °C 1018.8 hPa NE 11.9 km/h 11.9 km/h 90% 0.0 mm
22:43 0.5 °C -1.0 °C 1018.8 hPa NE 13.7 km/h 13.7 km/h 90% 0.0 mm
22:48 0.5 °C -1.0 °C 1018.8 hPa NE 12.2 km/h 13.7 km/h 90% 0.0 mm
22:53 0.5 °C -1.0 °C 1018.8 hPa NE 12.6 km/h 13.7 km/h 90% 0.0 mm
22:58 0.5 °C -1.0 °C 1018.8 hPa NE 10.1 km/h 16.6 km/h 90% 0.0 mm
23:03 0.4 °C -1.0 °C 1018.2 hPa ENE 14.0 km/h 20.9 km/h 90% 0.0 mm
23:08 0.4 °C -1.0 °C 1018.2 hPa NE 15.8 km/h 20.9 km/h 90% 0.0 mm
23:13 0.4 °C -1.0 °C 1018.2 hPa NE 12.6 km/h 20.9 km/h 90% 0.0 mm
23:18 0.3 °C -1.0 °C 1018.8 hPa NE 10.5 km/h 20.9 km/h 90% 0.0 mm
23:23 0.3 °C -1.0 °C 1018.8 hPa NNE 13.7 km/h 16.9 km/h 90% 0.0 mm
23:28 0.3 °C -1.0 °C 1018.8 hPa NNE 13.7 km/h 16.9 km/h 90% 0.0 mm
23:33 0.3 °C -1.0 °C 1018.8 hPa NE 13.0 km/h 14.3 km/h 90% 0.0 mm
23:38 0.3 °C -1.0 °C 1018.8 hPa NE 12.6 km/h 14.3 km/h 90% 0.0 mm
23:43 0.2 °C -1.0 °C 1018.8 hPa NE 12.2 km/h 16.6 km/h 90% 0.0 mm
23:48 0.2 °C -1.0 °C 1018.8 hPa NE 10.5 km/h 16.6 km/h 90% 0.0 mm
23:53 0.2 °C -1.0 °C 1018.8 hPa NE 10.5 km/h 19.8 km/h 90% 0.0 mm
23:59 0.2 °C -1.0 °C 1018.8 hPa NE 12.6 km/h 19.8 km/h 90% 0.0 mm
Données Historique de Météo Turbie

Mise a jour : 22/05/2018 21:40:12
Généré par Cumulus 1.9.4 (1099)